When you browse on this site, cookies collect data to enhance your experience and personalize the content and advertising you see.
Visit our Privacy Policy to learn more. By continuing to use the site, you agree to this use of cookies and data.
  • In Hungary
  • List of Countries
  • For 7 days
  • Water Temperature
  • Satellite Maps
  • Weather Map
  • News
  • Weather Widgets
  • user-avatar
    Login

    Hourly Weather Prutz

    Today, 23 January, Wednesday

    Time Temperature Precipitation Wind Pressure Humidity
    00:00 -12°C° 0 mm 2 mps 617 mmHg 62%
    01:00 -10°C° 0 mm 2 mps 617 mmHg 60%
    02:00 -10°C° 0 mm 1 mps 616 mmHg 61%
    03:00 -10°C° 0 mm 1 mps 616 mmHg 62%
    04:00 -10°C° 0 mm 1 mps 615 mmHg 63%
    05:00 -10°C° 0 mm 1 mps 615 mmHg 65%
    06:00 -10°C° 0 mm 1 mps 615 mmHg 66%
    07:00 -10°C° 0 mm 1 mps 615 mmHg 64%
    08:00 -9°C° 0 mm 1 mps 615 mmHg 68%
    09:00 -8°C° 0 mm 1 mps 615 mmHg 71%
    10:00 -7°C° 0 mm 1 mps 615 mmHg 74%
    11:00 -6°C° 0 mm 1 mps 615 mmHg 73%
    12:00 -4°C° 0 mm 1 mps 615 mmHg 72%
    13:00 -4°C° 0 mm 1 mps 615 mmHg 71%
    14:00 -4°C° 0.1 mm 1 mps 615 mmHg 77%
    15:00 -6°C° 0.1 mm 1 mps 614 mmHg 83%
    16:00 -6°C° 0.1 mm 1 mps 614 mmHg 88%
    17:00 -8°C° 0.1 mm 0 mps 614 mmHg 90%
    18:00 -9°C° 0.1 mm 0 mps 614 mmHg 92%
    19:00 -11°C° 0.1 mm 0 mps 613 mmHg 93%
    20:00 -11°C° 0 mm 0 mps 613 mmHg 92%
    21:00 -12°C° 0 mm 0 mps 614 mmHg 90%
    22:00 -12°C° 0 mm 1 mps 614 mmHg 89%
    23:00 -13°C° 0 mm 0 mps 614 mmHg 88%

    Tomorrow, 24 January, Thursday

    Time Temperature Precipitation Wind Pressure Humidity
    00:00 -13°C° 0 mm 0 mps 614 mmHg 88%
    01:00 -13°C° 0 mm 0 mps 614 mmHg 88%
    02:00 -14°C° 0 mm 0 mps 614 mmHg 88%
    03:00 -14°C° 0 mm 0 mps 615 mmHg 88%
    04:00 -14°C° 0 mm 1 mps 615 mmHg 88%
    05:00 -14°C° 0 mm 1 mps 615 mmHg 89%
    06:00 -14°C° 0 mm 1 mps 615 mmHg 89%
    07:00 -14°C° 0 mm 1 mps 616 mmHg 89%
    08:00 -13°C° 0 mm 1 mps 617 mmHg 88%
    09:00 -11°C° 0 mm 1 mps 618 mmHg 88%
    10:00 -9°C° 0 mm 1 mps 619 mmHg 87%
    11:00 -8°C° 0 mm 1 mps 619 mmHg 87%
    12:00 -8°C° 0 mm 2 mps 619 mmHg 87%
    13:00 -7°C° 0 mm 2 mps 620 mmHg 87%
    14:00 -8°C° 0 mm 2 mps 620 mmHg 88%
    15:00 -8°C° 0 mm 2 mps 620 mmHg 90%
    16:00 -8°C° 0 mm 2 mps 620 mmHg 91%
    17:00 -10°C° 0 mm 2 mps 620 mmHg 93%
    18:00 -10°C° 0 mm 1 mps 620 mmHg 95%
    19:00 -12°C° 0 mm 1 mps 620 mmHg 96%
    20:00 -13°C° 0 mm 1 mps 620 mmHg 96%
    21:00 -13°C° 0 mm 1 mps 620 mmHg 96%
    22:00 -14°C° 0 mm 1 mps 620 mmHg 95%
    23:00 -14°C° 0 mm 1 mps 621 mmHg 95%

    Day after tomorrow, 25 January, Friday

    Time Temperature Precipitation Wind Pressure Humidity
    00:00 -14°C° 0 mm 1 mps 621 mmHg 96%
    01:00 -14°C° 0 mm 1 mps 621 mmHg 96%
    02:00 -14°C° 0 mm 1 mps 621 mmHg 96%
    03:00 -14°C° 0 mm 1 mps 621 mmHg 96%
    04:00 -14°C° 0 mm 1 mps 621 mmHg 96%
    05:00 -15°C° 0 mm 1 mps 621 mmHg 96%
    06:00 -15°C° 0 mm 1 mps 621 mmHg 96%
    07:00 -15°C° 0 mm 1 mps 622 mmHg 95%
    08:00 -14°C° 0 mm 1 mps 622 mmHg 93%
    09:00 -13°C° 0 mm 1 mps 623 mmHg 92%
    10:00 -11°C° 0 mm 1 mps 624 mmHg 90%
    11:00 -12°C° 0 mm 2 mps 624 mmHg 88%
    12:00 -10°C° 0 mm 2 mps 624 mmHg 87%
    13:00 -10°C° 0 mm 2 mps 624 mmHg 85%
    14:00 -10°C° 0 mm 2 mps 624 mmHg 87%
    15:00 -10°C° 0 mm 2 mps 624 mmHg 90%
    16:00 -10°C° 0 mm 2 mps 625 mmHg 92%
    17:00 -13°C° 0 mm 2 mps 624 mmHg 93%
    18:00 -15°C° 0 mm 2 mps 624 mmHg 94%
    19:00 -15°C° 0 mm 1 mps 624 mmHg 96%
    20:00 -16°C° 0 mm 1 mps 624 mmHg 94%
    21:00 -16°C° 0 mm 1 mps 625 mmHg 93%
    22:00 -17°C° 0 mm 1 mps 625 mmHg 91%
    23:00 -16°C° 0 mm 1 mps 625 mmHg 88%

    26 January, Saturday

    Time Temperature Precipitation Wind Pressure Humidity
    00:00 -16°C° 0 mm 1 mps 625 mmHg 84%
    01:00 -16°C° 0 mm 1 mps 625 mmHg 81%
    02:00 -16°C° 0 mm 1 mps 626 mmHg 78%
    03:00 -15°C° 0 mm 1 mps 626 mmHg 74%
    04:00 -15°C° 0 mm 1 mps 626 mmHg 71%
    05:00 -15°C° 0 mm 1 mps 626 mmHg 67%
    06:00 -14°C° 0 mm 1 mps 626 mmHg 62%
    07:00 -16°C° 0 mm 2 mps 627 mmHg 58%
    08:00 -11°C° 0 mm 1 mps 627 mmHg 58%
    09:00 -9°C° 0 mm 1 mps 628 mmHg 58%
    10:00 -6°C° 0 mm 1 mps 629 mmHg 57%
    11:00 -4°C° 0 mm 1 mps 629 mmHg 58%
    12:00 -2°C° 0 mm 1 mps 629 mmHg 60%
    13:00 0°C° 0 mm 1 mps 629 mmHg 61%
    14:00 0°C° 0 mm 1 mps 628 mmHg 67%
    15:00 -1°C° 0 mm 1 mps 628 mmHg 74%
    16:00 -1°C° 0 mm 1 mps 627 mmHg 80%
    17:00 -3°C° 0 mm 1 mps 627 mmHg 78%
    18:00 -4°C° 0 mm 1 mps 626 mmHg 76%
    19:00 -6°C° 0 mm 1 mps 626 mmHg 74%
    20:00 -7°C° 0 mm 2 mps 626 mmHg 73%
    21:00 -7°C° 0 mm 2 mps 626 mmHg 72%
    22:00 -7°C° 0 mm 2 mps 625 mmHg 71%
    23:00 -7°C° 0 mm 2 mps 625 mmHg 71%

    27 January, Sunday

    Time Temperature Precipitation Wind Pressure Humidity
    00:00 -7°C° 0 mm 2 mps 625 mmHg 71%
    01:00 -7°C° 0 mm 2 mps 624 mmHg 71%
    02:00 -7°C° 0 mm 2 mps 624 mmHg 72%
    03:00 -7°C° 0 mm 2 mps 623 mmHg 72%
    04:00 -7°C° 0 mm 2 mps 622 mmHg 72%
    05:00 -7°C° 0 mm 2 mps 622 mmHg 72%
    06:00 -7°C° 0 mm 2 mps 622 mmHg 72%
    07:00 -7°C° 0 mm 2 mps 621 mmHg 72%
    08:00 -6°C° 0 mm 2 mps 621 mmHg 74%
    09:00 -5°C° 0 mm 2 mps 621 mmHg 76%
    10:00 -4°C° 0 mm 2 mps 621 mmHg 77%
    11:00 -3°C° 0 mm 2 mps 621 mmHg 77%
    12:00 0°C° 0 mm 1 mps 621 mmHg 77%
    13:00 +1°C° 0 mm 1 mps 621 mmHg 77%
    14:00 0°C° 0.2 mm 1 mps 620 mmHg 82%
    15:00 -1°C° 0.2 mm 1 mps 620 mmHg 86%
    16:00 -1°C° 0.2 mm 1 mps 620 mmHg 90%
    17:00 -2°C° 0.6 mm 1 mps 619 mmHg 92%
    18:00 -3°C° 0.6 mm 1 mps 619 mmHg 94%
    19:00 -4°C° 0.6 mm 1 mps 619 mmHg 95%
    20:00 -4°C° 0.5 mm 1 mps 619 mmHg 95%
    21:00 -6°C° 0.5 mm 1 mps 619 mmHg 95%
    22:00 -6°C° 0.5 mm 1 mps 619 mmHg 95%
    23:00 -6°C° 0.4 mm 1 mps 618 mmHg 95%

    28 January, Monday

    Time Temperature Precipitation Wind Pressure Humidity
    00:00 -7°C° 0.4 mm 1 mps 618 mmHg 94%
    01:00 -7°C° 0.4 mm 1 mps 618 mmHg 94%
    02:00 -7°C° 0.4 mm 1 mps 618 mmHg 94%
    03:00 -7°C° 0.4 mm 1 mps 617 mmHg 94%
    04:00 -7°C° 0.4 mm 1 mps 617 mmHg 94%
    05:00 -7°C° 0.3 mm 1 mps 617 mmHg 94%
    06:00 -8°C° 0.3 mm 1 mps 617 mmHg 94%
    07:00 -8°C° 0.3 mm 1 mps 617 mmHg 95%
    08:00 -7°C° 0.3 mm 1 mps 617 mmHg 93%
    09:00 -6°C° 0.3 mm 1 mps 617 mmHg 92%
    10:00 -7°C° 0.3 mm 2 mps 618 mmHg 91%
    11:00 -7°C° 0.2 mm 2 mps 617 mmHg 90%
    12:00 -6°C° 0.2 mm 2 mps 617 mmHg 90%
    13:00 -6°C° 0.2 mm 2 mps 617 mmHg 89%
    14:00 -6°C° 0.3 mm 2 mps 617 mmHg 90%
    15:00 -6°C° 0.3 mm 2 mps 617 mmHg 92%
    16:00 -7°C° 0.3 mm 3 mps 617 mmHg 93%
    17:00 -7°C° 0.2 mm 2 mps 617 mmHg 94%
    18:00 -8°C° 0.2 mm 2 mps 618 mmHg 95%
    19:00 -8°C° 0.2 mm 2 mps 618 mmHg 97%
    20:00 -9°C° 0.3 mm 2 mps 618 mmHg 96%
    21:00 -8°C° 0.3 mm 1 mps 618 mmHg 95%
    22:00 -8°C° 0.3 mm 1 mps 619 mmHg 95%
    23:00 -9°C° 0.2 mm 1 mps 619 mmHg 95%
    Show more